TimeCDT,TemperatureF,Dew PointF,Humidity,Sea Level PressureIn,VisibilityMPH,Wind Direction,Wind SpeedMPH,Gust SpeedMPH,PrecipitationIn,Events,Conditions,WindDirDegrees,DateUTC
12:15 AM,15.8,8.6,73,30.07,10.0,NW,11.5,-,N/A,,Scattered Clouds,310,2013-03-21 05:15:00
12:35 AM,15.4,9.0,76,30.06,10.0,WNW,9.2,-,N/A,,Clear,300,2013-03-21 05:35:00
12:55 AM,14.9,9.3,79,30.06,10.0,NW,9.2,-,N/A,,Clear,310,2013-03-21 05:55:00
1:15 AM,14.9,9.0,77,30.06,10.0,NW,9.2,-,N/A,,Clear,310,2013-03-21 06:15:00
1:35 AM,14.5,9.1,79,30.06,10.0,NW,6.9,-,N/A,,Clear,310,2013-03-21 06:35:00
1:55 AM,14.4,9.0,79,30.06,10.0,NW,8.1,-,N/A,,Clear,310,2013-03-21 06:55:00
2:15 AM,13.8,8.6,80,30.06,10.0,NW,6.9,-,N/A,,Clear,320,2013-03-21 07:15:00
2:35 AM,13.3,8.8,82,30.05,10.0,WNW,5.8,-,N/A,,Clear,300,2013-03-21 07:35:00
3:15 AM,13.1,8.6,82,30.05,10.0,WNW,6.9,-,N/A,,Clear,300,2013-03-21 08:15:00
3:35 AM,12.9,8.6,83,30.05,10.0,WNW,8.1,-,N/A,,Clear,300,2013-03-21 08:35:00
3:55 AM,12.9,8.4,82,30.04,10.0,WNW,6.9,-,N/A,,Clear,290,2013-03-21 08:55:00
4:15 AM,12.7,8.6,84,30.04,10.0,NW,5.8,-,N/A,,Clear,310,2013-03-21 09:15:00
4:55 AM,12.7,7.3,79,30.04,10.0,NW,8.1,-,N/A,,Clear,310,2013-03-21 09:55:00
5:15 AM,12.2,7.3,81,30.04,10.0,NW,6.9,-,N/A,,Clear,310,2013-03-21 10:15:00
5:55 AM,12.0,7.3,81,30.05,10.0,West,5.8,-,N/A,,Clear,280,2013-03-21 10:55:00
6:15 AM,11.8,7.5,83,30.06,10.0,WNW,8.1,-,N/A,,Clear,290,2013-03-21 11:15:00
6:35 AM,11.7,7.5,83,30.06,10.0,WNW,8.1,-,N/A,,Clear,300,2013-03-21 11:35:00
6:55 AM,11.8,6.8,80,30.06,10.0,NW,8.1,-,N/A,,Clear,310,2013-03-21 11:55:00
7:15 AM,11.8,6.8,80,30.06,10.0,WNW,10.4,-,N/A,,Clear,300,2013-03-21 12:15:00
7:35 AM,12.2,7.2,80,30.05,10.0,WNW,9.2,-,N/A,,Clear,300,2013-03-21 12:35:00
7:55 AM,13.1,7.3,78,30.05,10.0,NNW,8.1,-,N/A,,Clear,330,2013-03-21 12:55:00
8:15 AM,14.4,7.9,75,30.06,10.0,NNW,9.2,-,N/A,,Clear,330,2013-03-21 13:15:00
8:35 AM,15.8,8.4,73,30.06,10.0,NNW,8.1,-,N/A,,Clear,330,2013-03-21 13:35:00
8:55 AM,17.1,8.6,69,30.06,10.0,NW,8.1,-,N/A,,Clear,320,2013-03-21 13:55:00
9:15 AM,18.3,8.8,66,30.07,10.0,NW,9.2,-,N/A,,Clear,310,2013-03-21 14:15:00
9:35 AM,19.4,8.6,63,30.07,10.0,NNW,9.2,-,N/A,,Clear,330,2013-03-21 14:35:00
9:55 AM,20.7,9.7,63,30.07,10.0,NNW,9.2,-,N/A,,Clear,330,2013-03-21 14:55:00
10:15 AM,21.2,9.1,60,30.06,10.0,NW,8.1,-,N/A,,Clear,320,2013-03-21 15:15:00
10:35 AM,22.1,9.5,58,30.06,10.0,NW,9.2,-,N/A,,Clear,320,2013-03-21 15:35:00
10:55 AM,22.5,9.9,59,30.06,10.0,NW,8.1,-,N/A,,Clear,320,2013-03-21 15:55:00
11:15 AM,23.0,10.6,59,30.06,10.0,West,9.2,20.7,N/A,,Clear,280,2013-03-21 16:15:00
11:35 AM,23.9,12.4,62,30.06,10.0,WNW,6.9,-,N/A,,Clear,300,2013-03-21 16:35:00
11:55 AM,24.4,11.7,58,30.06,10.0,WNW,10.4,-,N/A,,Clear,290,2013-03-21 16:55:00
12:15 PM,25.2,13.3,61,30.06,10.0,WNW,6.9,-,N/A,,Clear,290,2013-03-21 17:15:00
12:35 PM,25.7,12.7,58,30.06,10.0,West,9.2,-,N/A,,Clear,280,2013-03-21 17:35:00
12:55 PM,26.2,13.5,59,30.05,10.0,West,9.2,-,N/A,,Clear,260,2013-03-21 17:55:00
1:15 PM,26.4,14.7,61,30.05,10.0,WNW,9.2,-,N/A,,Clear,290,2013-03-21 18:15:00
1:35 PM,27.0,15.6,62,30.05,10.0,WNW,10.4,-,N/A,,Clear,290,2013-03-21 18:35:00
1:55 PM,27.3,14.5,59,30.05,10.0,WNW,5.8,-,N/A,,Clear,300,2013-03-21 18:55:00
2:15 PM,27.9,16.0,61,30.05,10.0,WNW,9.2,-,N/A,,Clear,290,2013-03-21 19:15:00
2:35 PM,28.2,16.9,63,30.04,10.0,WNW,6.9,-,N/A,,Clear,300,2013-03-21 19:35:00
2:55 PM,28.2,16.7,62,30.04,10.0,NNW,10.4,-,N/A,,Clear,330,2013-03-21 19:55:00
3:15 PM,28.4,16.0,60,30.04,10.0,WNW,8.1,-,N/A,,Clear,300,2013-03-21 20:15:00
3:35 PM,28.4,15.6,59,30.03,10.0,NW,9.2,-,N/A,,Clear,310,2013-03-21 20:35:00
3:55 PM,28.6,16.0,59,30.03,10.0,North,11.5,-,N/A,,Clear,350,2013-03-21 20:55:00
4:15 PM,28.8,16.2,59,30.02,10.0,North,8.1,-,N/A,,Clear,360,2013-03-21 21:15:00
4:35 PM,29.3,17.1,60,30.02,10.0,NNW,8.1,-,N/A,,Clear,330,2013-03-21 21:35:00
4:55 PM,28.8,17.2,62,30.01,10.0,North,9.2,-,N/A,,Clear,360,2013-03-21 21:55:00
5:15 PM,28.2,16.7,62,30.01,10.0,North,6.9,-,N/A,,Clear,360,2013-03-21 22:15:00
5:35 PM,27.7,16.2,62,30.02,10.0,North,6.9,-,N/A,,Clear,360,2013-03-21 22:35:00
5:55 PM,28.0,16.5,62,30.02,10.0,North,5.8,-,N/A,,Clear,350,2013-03-21 22:55:00
6:15 PM,27.9,16.2,62,30.02,10.0,North,5.8,-,N/A,,Clear,350,2013-03-21 23:15:00
6:35 PM,27.3,16.3,63,30.02,10.0,NNW,5.8,-,N/A,,Clear,340,2013-03-21 23:35:00
6:55 PM,26.8,17.2,67,30.02,10.0,North,6.9,-,N/A,,Clear,350,2013-03-21 23:55:00
7:15 PM,25.7,17.2,70,30.02,10.0,North,6.9,-,N/A,,Clear,350,2013-03-22 00:15:00
7:35 PM,25.3,17.1,71,30.02,10.0,NNW,4.6,-,N/A,,Clear,340,2013-03-22 00:35:00
7:55 PM,24.8,17.8,75,30.03,10.0,North,4.6,-,N/A,,Clear,360,2013-03-22 00:55:00
8:15 PM,24.6,18.1,76,30.03,10.0,North,4.6,-,N/A,,Clear,350,2013-03-22 01:15:00
8:35 PM,24.4,19.0,80,30.03,10.0,North,3.5,-,N/A,,Clear,360,2013-03-22 01:35:00
8:55 PM,23.9,18.7,80,30.03,10.0,North,3.5,-,N/A,,Clear,360,2013-03-22 01:55:00
9:15 PM,23.9,18.5,80,30.04,10.0,North,3.5,-,N/A,,Clear,360,2013-03-22 02:15:00
9:35 PM,23.5,18.1,80,30.03,10.0,North,3.5,-,N/A,,Clear,360,2013-03-22 02:35:00
9:55 PM,23.2,18.0,80,30.04,10.0,North,3.5,-,N/A,,Clear,360,2013-03-22 02:55:00
10:15 PM,23.0,18.0,81,30.04,10.0,Calm,Calm,-,N/A,,Clear,0,2013-03-22 03:15:00
10:35 PM,22.8,18.0,82,30.04,10.0,NNW,4.6,-,N/A,,Clear,340,2013-03-22 03:35:00
10:55 PM,22.6,17.4,80,30.04,10.0,North,4.6,-,N/A,,Clear,360,2013-03-22 03:55:00
11:15 PM,22.1,18.0,84,30.04,10.0,North,3.5,-,N/A,,Clear,10,2013-03-22 04:15:00
11:35 PM,21.9,17.4,83,30.04,10.0,North,3.5,-,N/A,,Clear,10,2013-03-22 04:35:00
11:55 PM,22.1,17.4,82,30.04,10.0,Calm,Calm,-,N/A,,Clear,0,2013-03-22 04:55:00